Location: NJAA Observatory
(40.6819°N, 74.8979°W)
Time: 06:57:40
(UTC-04:00)

Iridium 56 - Visible Passes

Search period start: 19 April 2015 00:00
Search period end: 29 April 2015 00:00
Orbit: 776 x 779 km, 86.4° (Epoch: 18 April)

Date Brightness Start Highest point End Pass type
(mag) Time Alt. Az. Time Alt. Az. Time Alt. Az.
19 Apr 8.4 21:38:59 10° NW 21:41:49 14° W 21:44:23 10° WSW visible
20 Apr 7.8 21:04:12 10° NNW 21:08:32 26° W 21:12:44 10° SW visible
21 Apr 6.7 20:30:09 10° NNW 20:35:09 48° W 20:40:07 10° SSW visible
23 Apr 8.3 21:04:54 10° NW 21:08:29 18° W 21:11:52 10° WSW visible
24 Apr 7.5 20:30:30 10° NNW 20:35:10 33° W 20:39:44 10° SSW visible
26 Apr 8.7 21:06:07 10° NW 21:08:24 13° WNW 21:10:23 10° W visible
27 Apr 8.2 20:31:01 10° NNW 20:35:08 23° W 20:39:06 10° SW visible
